Year,Month,Day,Hour,Minute,Value (Times are PST for temperature in C)
2010,07,21,00,00,13.20
2010,07,21,00,01,13.20
2010,07,21,00,02,13.20
2010,07,21,00,03,13.10
2010,07,21,00,04,13.10
2010,07,21,00,05,13.10
2010,07,21,00,06,13.10
2010,07,21,00,07,13.10
2010,07,21,00,08,13.10
2010,07,21,00,09,13.10
2010,07,21,00,10,13.10
2010,07,21,00,11,13.00
2010,07,21,00,12,13.00
2010,07,21,00,13,13.00
2010,07,21,00,14,13.00
2010,07,21,00,15,13.00
2010,07,21,00,16,13.00
2010,07,21,00,17,13.00
2010,07,21,00,18,13.00
2010,07,21,00,19,12.90
2010,07,21,00,20,12.90
2010,07,21,00,21,12.90
2010,07,21,00,22,12.90
2010,07,21,00,23,12.90
2010,07,21,00,24,12.90
2010,07,21,00,25,12.90
2010,07,21,00,26,12.90
2010,07,21,00,27,12.90
2010,07,21,00,28,12.90
2010,07,21,00,29,12.90
2010,07,21,00,30,12.90
2010,07,21,00,31,12.80
2010,07,21,00,32,12.80
2010,07,21,00,33,12.80
2010,07,21,00,34,12.80
2010,07,21,00,35,12.80
2010,07,21,00,36,12.80
2010,07,21,00,37,12.80
2010,07,21,00,38,12.80
2010,07,21,00,39,12.80
2010,07,21,00,40,12.80
2010,07,21,00,41,12.80
2010,07,21,00,42,12.80
2010,07,21,00,43,12.80
2010,07,21,00,44,12.80
2010,07,21,00,45,12.80
2010,07,21,00,46,12.80
2010,07,21,00,47,12.70
2010,07,21,00,48,12.70
2010,07,21,00,49,12.70
2010,07,21,00,50,12.70
2010,07,21,00,51,12.70
2010,07,21,00,52,12.70
2010,07,21,00,53,12.70
2010,07,21,00,54,12.70
2010,07,21,00,55,12.70
2010,07,21,00,56,12.70
2010,07,21,00,57,12.70
2010,07,21,00,58,12.70
2010,07,21,00,59,12.70
2010,07,21,01,00,12.60
2010,07,21,01,01,12.60
2010,07,21,01,02,12.60
2010,07,21,01,03,12.60
2010,07,21,01,04,12.60
2010,07,21,01,05,12.60
2010,07,21,01,06,12.60
2010,07,21,01,07,12.60
2010,07,21,01,08,12.60
2010,07,21,01,09,12.60
2010,07,21,01,10,12.60
2010,07,21,01,11,12.60
2010,07,21,01,12,12.60
2010,07,21,01,13,12.60
2010,07,21,01,14,12.60
2010,07,21,01,15,12.60
2010,07,21,01,16,12.60
2010,07,21,01,17,12.60
2010,07,21,01,18,12.50
2010,07,21,01,19,12.50
2010,07,21,01,20,12.50
2010,07,21,01,21,12.50
2010,07,21,01,22,12.50
2010,07,21,01,23,12.50
2010,07,21,01,24,12.50
2010,07,21,01,25,12.50
2010,07,21,01,26,12.50
2010,07,21,01,27,12.50
2010,07,21,01,28,12.50
2010,07,21,01,29,12.50
2010,07,21,01,30,12.50
2010,07,21,01,31,12.50
2010,07,21,01,32,12.50
2010,07,21,01,33,12.50
2010,07,21,01,34,12.40
2010,07,21,01,35,12.40
2010,07,21,01,36,12.40
2010,07,21,01,37,12.40
2010,07,21,01,38,12.40
2010,07,21,01,39,12.40
2010,07,21,01,40,12.40
2010,07,21,01,41,12.40
2010,07,21,01,42,12.40
2010,07,21,01,43,12.40
2010,07,21,01,44,12.40
2010,07,21,01,45,12.30
2010,07,21,01,46,12.30
2010,07,21,01,47,12.30
2010,07,21,01,48,12.30
2010,07,21,01,49,12.30
2010,07,21,01,50,12.30
2010,07,21,01,51,12.30
2010,07,21,01,52,12.30
2010,07,21,01,53,12.30
2010,07,21,01,54,12.30
2010,07,21,01,55,12.30
2010,07,21,01,56,12.20
2010,07,21,01,57,12.20
2010,07,21,01,58,12.20
2010,07,21,01,59,12.20
2010,07,21,02,00,12.20
2010,07,21,02,01,12.20
2010,07,21,02,02,12.20
2010,07,21,02,03,12.20
2010,07,21,02,04,12.20
2010,07,21,02,05,12.20
2010,07,21,02,06,12.20
2010,07,21,02,07,12.20
2010,07,21,02,08,12.20
2010,07,21,02,09,12.20
2010,07,21,02,10,12.20
2010,07,21,02,11,12.20
2010,07,21,02,12,12.20
2010,07,21,02,13,12.20
2010,07,21,02,14,12.10
2010,07,21,02,15,12.10
2010,07,21,02,16,12.10
2010,07,21,02,17,12.10
2010,07,21,02,18,12.10
2010,07,21,02,19,12.10
2010,07,21,02,20,12.10
2010,07,21,02,21,12.10
2010,07,21,02,22,12.10
2010,07,21,02,23,12.10
2010,07,21,02,24,12.10
2010,07,21,02,25,12.10
2010,07,21,02,26,12.10
2010,07,21,02,27,12.10
2010,07,21,02,28,12.10
2010,07,21,02,29,12.00
2010,07,21,02,30,12.00
2010,07,21,02,31,12.00
2010,07,21,02,32,12.00
2010,07,21,02,33,12.00
2010,07,21,02,34,12.00
2010,07,21,02,35,12.00
2010,07,21,02,36,12.00
2010,07,21,02,37,12.00
2010,07,21,02,38,11.90
2010,07,21,02,39,11.90
2010,07,21,02,40,11.90
2010,07,21,02,41,11.90
2010,07,21,02,42,11.90
2010,07,21,02,43,11.90
2010,07,21,02,44,11.90
2010,07,21,02,45,11.90
2010,07,21,02,46,11.90
2010,07,21,02,47,11.90
2010,07,21,02,48,11.90
2010,07,21,02,49,11.90
2010,07,21,02,50,11.90
2010,07,21,02,51,11.90
2010,07,21,02,52,11.90
2010,07,21,02,53,11.90
2010,07,21,02,54,11.90
2010,07,21,02,55,11.90
2010,07,21,02,56,11.90
2010,07,21,02,57,11.90
2010,07,21,02,58,11.80
2010,07,21,02,59,11.80
2010,07,21,03,00,11.80
2010,07,21,03,01,11.80
2010,07,21,03,02,11.80
2010,07,21,03,03,11.80
2010,07,21,03,04,11.80
2010,07,21,03,05,11.80
2010,07,21,03,06,11.80
2010,07,21,03,07,11.80
2010,07,21,03,08,11.80
2010,07,21,03,09,11.80
2010,07,21,03,10,11.80
2010,07,21,03,11,11.80
2010,07,21,03,12,11.70
2010,07,21,03,13,11.70
2010,07,21,03,14,11.70
2010,07,21,03,15,11.70
2010,07,21,03,16,11.70
2010,07,21,03,17,11.70
2010,07,21,03,18,11.70
2010,07,21,03,19,11.70
2010,07,21,03,20,11.70
2010,07,21,03,21,11.70
2010,07,21,03,22,11.70
2010,07,21,03,23,11.70
2010,07,21,03,24,11.70
2010,07,21,03,25,11.70
2010,07,21,03,26,11.70
2010,07,21,03,27,11.70
2010,07,21,03,28,11.60
2010,07,21,03,29,11.60
2010,07,21,03,30,11.60
2010,07,21,03,31,11.60
2010,07,21,03,32,11.60
2010,07,21,03,33,11.60
2010,07,21,03,34,11.60
2010,07,21,03,35,11.60
2010,07,21,03,36,11.60
2010,07,21,03,37,11.60
2010,07,21,03,38,11.60
2010,07,21,03,39,11.60
2010,07,21,03,40,11.60
2010,07,21,03,41,11.50
2010,07,21,03,42,11.50
2010,07,21,03,43,11.50
2010,07,21,03,44,11.50
2010,07,21,03,45,11.50
2010,07,21,03,46,11.50
2010,07,21,03,47,11.50
2010,07,21,03,48,11.50
2010,07,21,03,49,11.50
2010,07,21,03,50,11.50
2010,07,21,03,51,11.50
2010,07,21,03,52,11.50
2010,07,21,03,53,11.50
2010,07,21,03,54,11.50
2010,07,21,03,55,11.50
2010,07,21,03,56,11.50
2010,07,21,03,57,11.50
2010,07,21,03,58,11.50
2010,07,21,03,59,11.50
2010,07,21,04,00,11.50
2010,07,21,04,01,11.50
2010,07,21,04,02,11.50
2010,07,21,04,03,11.50
2010,07,21,04,04,11.50
2010,07,21,04,05,11.50
2010,07,21,04,06,11.50
2010,07,21,04,07,11.50
2010,07,21,04,08,11.50
2010,07,21,04,09,11.50
2010,07,21,04,10,11.40
2010,07,21,04,11,11.40
2010,07,21,04,12,11.40
2010,07,21,04,13,11.40
2010,07,21,04,14,11.40
2010,07,21,04,15,11.40
2010,07,21,04,16,11.40
2010,07,21,04,17,11.40
2010,07,21,04,18,11.40
2010,07,21,04,19,11.40
2010,07,21,04,20,11.40
2010,07,21,04,21,11.40
2010,07,21,04,22,11.40
2010,07,21,04,23,11.40
2010,07,21,04,24,11.40
2010,07,21,04,25,11.40
2010,07,21,04,26,11.40
2010,07,21,04,27,11.40
2010,07,21,04,28,11.40
2010,07,21,04,29,11.40
2010,07,21,04,30,11.40
2010,07,21,04,31,11.40
2010,07,21,04,32,11.40
2010,07,21,04,33,11.40
2010,07,21,04,34,11.40
2010,07,21,04,35,11.40
2010,07,21,04,36,11.40
2010,07,21,04,37,11.40
2010,07,21,04,38,11.40
2010,07,21,04,39,11.40
2010,07,21,04,40,11.40
2010,07,21,04,41,11.40
2010,07,21,04,42,11.40
2010,07,21,04,43,11.40
2010,07,21,04,44,11.40
2010,07,21,04,45,11.40
2010,07,21,04,46,11.40
2010,07,21,04,47,11.40
2010,07,21,04,48,11.40
2010,07,21,04,49,11.40
2010,07,21,04,50,11.40
2010,07,21,04,51,11.40
2010,07,21,04,52,11.40
2010,07,21,04,53,11.40
2010,07,21,04,54,11.30
2010,07,21,04,55,11.30
2010,07,21,04,56,11.30
2010,07,21,04,57,11.30
2010,07,21,04,58,11.30
2010,07,21,04,59,11.30
2010,07,21,05,00,11.30
2010,07,21,05,01,11.30
2010,07,21,05,02,11.30
2010,07,21,05,03,11.30
2010,07,21,05,04,11.30
2010,07,21,05,05,11.30
2010,07,21,05,06,11.30
2010,07,21,05,07,11.30
2010,07,21,05,08,11.20
2010,07,21,05,09,11.20
2010,07,21,05,10,11.20
2010,07,21,05,11,11.20
2010,07,21,05,12,11.20
2010,07,21,05,13,11.20
2010,07,21,05,14,11.20
2010,07,21,05,15,11.20
2010,07,21,05,16,11.20
2010,07,21,05,17,11.20
2010,07,21,05,18,11.20
2010,07,21,05,19,11.20
2010,07,21,05,20,11.20
2010,07,21,05,21,11.20
2010,07,21,05,22,11.20
2010,07,21,05,23,11.20
2010,07,21,05,24,11.20
2010,07,21,05,25,11.20
2010,07,21,05,26,11.20
2010,07,21,05,27,11.20
2010,07,21,05,28,11.20
2010,07,21,05,29,11.20
2010,07,21,05,30,11.20
2010,07,21,05,31,11.20
2010,07,21,05,32,11.20
2010,07,21,05,33,11.20
2010,07,21,05,34,11.20
2010,07,21,05,35,11.20
2010,07,21,05,36,11.20
2010,07,21,05,37,11.20
2010,07,21,05,38,11.20
2010,07,21,05,39,11.20
2010,07,21,05,40,11.10
2010,07,21,05,41,11.10
2010,07,21,05,42,11.10
2010,07,21,05,43,11.10
2010,07,21,05,44,11.10
2010,07,21,05,45,11.10
2010,07,21,05,46,11.10
2010,07,21,05,47,11.10
2010,07,21,05,48,11.10
2010,07,21,05,49,11.10
2010,07,21,05,50,11.10
2010,07,21,05,51,11.10
2010,07,21,05,52,11.10
2010,07,21,05,53,11.10
2010,07,21,05,54,11.10
2010,07,21,05,55,11.10
2010,07,21,05,56,11.10
2010,07,21,05,57,11.10
2010,07,21,05,58,11.10
2010,07,21,05,59,11.10
2010,07,21,06,00,11.10
2010,07,21,06,01,11.10
2010,07,21,06,02,11.10
2010,07,21,06,03,11.10
2010,07,21,06,04,11.10
2010,07,21,06,05,11.10
2010,07,21,06,06,11.10
2010,07,21,06,07,11.10
2010,07,21,06,08,11.10
2010,07,21,06,09,11.10
2010,07,21,06,10,11.10
2010,07,21,06,11,11.10
2010,07,21,06,12,11.10
2010,07,21,06,13,11.10
2010,07,21,06,14,11.10
2010,07,21,06,15,11.10
2010,07,21,06,16,11.10
2010,07,21,06,17,11.10
2010,07,21,06,18,11.10
2010,07,21,06,19,11.10
2010,07,21,06,20,11.10
2010,07,21,06,21,11.10
2010,07,21,06,22,11.10
2010,07,21,06,23,11.10
2010,07,21,06,24,11.10
2010,07,21,06,25,11.10
2010,07,21,06,26,11.10
2010,07,21,06,27,11.10
2010,07,21,06,28,11.10
2010,07,21,06,29,11.10
2010,07,21,06,30,11.10
2010,07,21,06,31,11.20
2010,07,21,06,32,11.20
2010,07,21,06,33,11.20
2010,07,21,06,34,11.20
2010,07,21,06,35,11.20
2010,07,21,06,36,11.20
2010,07,21,06,37,11.20
2010,07,21,06,38,11.20
2010,07,21,06,39,11.20
2010,07,21,06,40,11.20
2010,07,21,06,41,11.20
2010,07,21,06,42,11.30
2010,07,21,06,43,11.30
2010,07,21,06,44,11.30
2010,07,21,06,45,11.30
2010,07,21,06,46,11.30
2010,07,21,06,47,11.30
2010,07,21,06,48,11.30
2010,07,21,06,49,11.30
2010,07,21,06,50,11.40
2010,07,21,06,51,11.40
2010,07,21,06,52,11.40
2010,07,21,06,53,11.40
2010,07,21,06,54,11.40
2010,07,21,06,55,11.40
2010,07,21,06,56,11.40
2010,07,21,06,57,11.40
2010,07,21,06,58,11.40
2010,07,21,06,59,11.40
2010,07,21,07,00,11.50
2010,07,21,07,01,11.50
2010,07,21,07,02,11.50
2010,07,21,07,03,11.50
2010,07,21,07,04,11.60
2010,07,21,07,05,11.60
2010,07,21,07,06,11.60
2010,07,21,07,07,11.60
2010,07,21,07,08,11.70
2010,07,21,07,09,11.70
2010,07,21,07,10,11.70
2010,07,21,07,11,11.70
2010,07,21,07,12,11.80
2010,07,21,07,13,11.80
2010,07,21,07,14,11.80
2010,07,21,07,15,11.80
2010,07,21,07,16,11.80
2010,07,21,07,17,11.90
2010,07,21,07,18,11.90
2010,07,21,07,19,11.90
2010,07,21,07,20,12.00
2010,07,21,07,21,12.00
2010,07,21,07,22,12.00
2010,07,21,07,23,12.10
2010,07,21,07,24,12.10
2010,07,21,07,25,12.10
2010,07,21,07,26,12.20
2010,07,21,07,27,12.20
2010,07,21,07,28,12.30
2010,07,21,07,29,12.30
2010,07,21,07,30,12.30
2010,07,21,07,31,12.40
2010,07,21,07,32,12.50
2010,07,21,07,33,12.60
2010,07,21,07,34,12.60
2010,07,21,07,35,12.70
2010,07,21,07,36,12.80
2010,07,21,07,37,12.90
2010,07,21,07,38,13.00
2010,07,21,07,39,13.10
2010,07,21,07,40,13.20
2010,07,21,07,41,13.30
2010,07,21,07,42,13.40
2010,07,21,07,43,13.50
2010,07,21,07,44,13.60
2010,07,21,07,45,13.70
2010,07,21,07,46,13.80
2010,07,21,07,47,13.80
2010,07,21,07,48,13.90
2010,07,21,07,49,14.10
2010,07,21,07,50,14.10
2010,07,21,07,51,14.20
2010,07,21,07,52,14.30
2010,07,21,07,53,14.50
2010,07,21,07,54,14.60
2010,07,21,07,55,14.70
2010,07,21,07,56,14.90
2010,07,21,07,57,15.00
2010,07,21,07,58,15.10
2010,07,21,07,59,15.30
2010,07,21,08,00,15.50
2010,07,21,08,01,15.70
2010,07,21,08,02,15.80
2010,07,21,08,03,16.00
2010,07,21,08,04,16.10
2010,07,21,08,05,16.30
2010,07,21,08,06,16.50
2010,07,21,08,07,16.60
2010,07,21,08,08,16.80
2010,07,21,08,09,16.90
2010,07,21,08,10,17.10
2010,07,21,08,11,17.20
2010,07,21,08,12,17.30
2010,07,21,08,13,17.50
2010,07,21,08,14,17.60
2010,07,21,08,15,17.70
2010,07,21,08,16,17.90
2010,07,21,08,17,18.00
2010,07,21,08,18,18.10
2010,07,21,08,19,18.30
2010,07,21,08,20,18.30
2010,07,21,08,21,18.40
2010,07,21,08,22,18.50
2010,07,21,08,23,18.60
2010,07,21,08,24,18.70
2010,07,21,08,25,18.80
2010,07,21,08,26,18.80
2010,07,21,08,27,18.90
2010,07,21,08,28,19.00
2010,07,21,08,29,19.10
2010,07,21,08,30,19.20
2010,07,21,08,31,19.30
2010,07,21,08,32,19.30
2010,07,21,08,33,19.40
2010,07,21,08,34,19.50
2010,07,21,08,35,19.50
2010,07,21,08,36,19.60
2010,07,21,08,37,19.70
2010,07,21,08,38,19.80
2010,07,21,08,39,19.80
2010,07,21,08,40,19.90
2010,07,21,08,41,20.00
2010,07,21,08,42,20.00
2010,07,21,08,43,20.00
2010,07,21,08,44,20.10
2010,07,21,08,45,20.10
2010,07,21,08,46,20.20
2010,07,21,08,47,20.20
2010,07,21,08,48,20.20
2010,07,21,08,49,20.30
2010,07,21,08,50,20.30
2010,07,21,08,51,20.30
2010,07,21,08,52,20.40
2010,07,21,08,53,20.40
2010,07,21,08,54,20.40
2010,07,21,08,55,20.30
2010,07,21,08,56,20.20
2010,07,21,08,57,20.20
2010,07,21,08,58,20.20
2010,07,21,08,59,20.10
2010,07,21,09,00,20.10
2010,07,21,09,01,20.10
2010,07,21,09,02,20.10
2010,07,21,09,03,20.20
2010,07,21,09,04,20.20
2010,07,21,09,05,20.20
2010,07,21,09,06,20.20
2010,07,21,09,07,20.20
2010,07,21,09,08,20.20
2010,07,21,09,09,20.30
2010,07,21,09,10,20.40
2010,07,21,09,11,20.50
2010,07,21,09,12,20.60
2010,07,21,09,13,20.70
2010,07,21,09,14,20.80
2010,07,21,09,15,20.80
2010,07,21,09,16,20.80
2010,07,21,09,17,20.80
2010,07,21,09,18,20.90
2010,07,21,09,19,20.90
2010,07,21,09,20,21.00
2010,07,21,09,21,21.00
2010,07,21,09,22,21.10
2010,07,21,09,23,21.10
2010,07,21,09,24,21.10
2010,07,21,09,25,21.00
2010,07,21,09,26,20.90
2010,07,21,09,27,20.90
2010,07,21,09,28,20.90
2010,07,21,09,29,20.80
2010,07,21,09,30,20.90
2010,07,21,09,31,20.90
2010,07,21,09,32,21.00
2010,07,21,09,33,21.00
2010,07,21,09,34,21.10
2010,07,21,09,35,21.10
2010,07,21,09,36,21.10
2010,07,21,09,37,21.20
2010,07,21,09,38,21.20
2010,07,21,09,39,21.20
2010,07,21,09,40,21.20
2010,07,21,09,41,21.30
2010,07,21,09,42,21.30
2010,07,21,09,43,21.20
2010,07,21,09,44,21.20
2010,07,21,09,45,21.20
2010,07,21,09,46,21.20
2010,07,21,09,47,21.20
2010,07,21,09,48,21.20
2010,07,21,09,49,21.30
2010,07,21,09,50,21.30
2010,07,21,09,51,21.30
2010,07,21,09,52,21.30
2010,07,21,09,53,21.30
2010,07,21,09,54,21.30
2010,07,21,09,55,21.40
2010,07,21,09,56,21.40
2010,07,21,09,57,21.50
2010,07,21,09,58,21.60
2010,07,21,09,59,21.60
2010,07,21,10,00,21.70
2010,07,21,10,01,21.80
2010,07,21,10,02,21.80
2010,07,21,10,03,21.90
2010,07,21,10,04,21.90
2010,07,21,10,05,22.00
2010,07,21,10,06,22.10
2010,07,21,10,07,22.20
2010,07,21,10,08,22.20
2010,07,21,10,09,22.20
2010,07,21,10,10,22.30
2010,07,21,10,11,22.30
2010,07,21,10,12,22.30
2010,07,21,10,13,22.20
2010,07,21,10,14,22.20
2010,07,21,10,15,22.20
2010,07,21,10,16,22.20
2010,07,21,10,17,22.20
2010,07,21,10,18,22.10
2010,07,21,10,19,22.10
2010,07,21,10,20,22.10
2010,07,21,10,21,22.20
2010,07,21,10,22,22.30
2010,07,21,10,23,22.30
2010,07,21,10,24,22.30
2010,07,21,10,25,22.30
2010,07,21,10,26,22.30
2010,07,21,10,27,22.30
2010,07,21,10,28,22.30
2010,07,21,10,29,22.20
2010,07,21,10,30,22.10
2010,07,21,10,31,22.10
2010,07,21,10,32,22.10
2010,07,21,10,33,22.10
2010,07,21,10,34,22.10
2010,07,21,10,35,22.10
2010,07,21,10,36,22.10
2010,07,21,10,37,22.20
2010,07,21,10,38,22.20
2010,07,21,10,39,22.30
2010,07,21,10,40,22.30
2010,07,21,10,41,22.30
2010,07,21,10,42,22.30
2010,07,21,10,43,22.30
2010,07,21,10,44,22.30
2010,07,21,10,45,22.30
2010,07,21,10,46,22.30
2010,07,21,10,47,22.40
2010,07,21,10,48,22.50
2010,07,21,10,49,22.50
2010,07,21,10,50,22.60
2010,07,21,10,51,22.60
2010,07,21,10,52,22.70
2010,07,21,10,53,22.70
2010,07,21,10,54,22.80
2010,07,21,10,55,22.70
2010,07,21,10,56,22.70
2010,07,21,10,57,22.60
2010,07,21,10,58,22.60
2010,07,21,10,59,22.60
2010,07,21,11,00,22.50
2010,07,21,11,01,22.50
2010,07,21,11,02,22.50
2010,07,21,11,03,22.50
2010,07,21,11,04,22.50
2010,07,21,11,05,22.60
2010,07,21,11,06,22.70
2010,07,21,11,07,22.80
2010,07,21,11,08,22.90
2010,07,21,11,09,23.00
2010,07,21,11,10,23.10
2010,07,21,11,11,23.20
2010,07,21,11,12,23.30
2010,07,21,11,13,23.40
2010,07,21,11,14,23.50
2010,07,21,11,15,23.50
2010,07,21,11,16,23.50
2010,07,21,11,17,23.40
2010,07,21,11,18,23.40
2010,07,21,11,19,23.40
2010,07,21,11,20,23.40
2010,07,21,11,21,23.40
2010,07,21,11,22,23.40
2010,07,21,11,23,23.40
2010,07,21,11,24,23.50
2010,07,21,11,25,23.50
2010,07,21,11,26,23.40
2010,07,21,11,27,23.40
2010,07,21,11,28,23.20
2010,07,21,11,29,23.00
2010,07,21,11,30,22.90
2010,07,21,11,31,22.80
2010,07,21,11,32,22.80
2010,07,21,11,33,22.80
2010,07,21,11,34,22.90
2010,07,21,11,35,22.90
2010,07,21,11,36,23.00
2010,07,21,11,37,23.10
2010,07,21,11,38,23.10
2010,07,21,11,39,23.20
2010,07,21,11,40,23.20
2010,07,21,11,41,23.30
2010,07,21,11,42,23.30
2010,07,21,11,43,23.40
2010,07,21,11,44,23.40
2010,07,21,11,45,23.50
2010,07,21,11,46,23.50
2010,07,21,11,47,23.60
2010,07,21,11,48,23.60
2010,07,21,11,49,23.60
2010,07,21,11,50,23.60
2010,07,21,11,51,23.60
2010,07,21,11,52,23.40
2010,07,21,11,53,23.30
2010,07,21,11,54,23.30
2010,07,21,11,55,23.30
2010,07,21,11,56,23.30
2010,07,21,11,57,23.30
2010,07,21,11,58,23.40
2010,07,21,11,59,23.50
2010,07,21,12,00,23.60
2010,07,21,12,01,23.50
2010,07,21,12,02,23.50
2010,07,21,12,03,23.40
2010,07,21,12,04,23.30
2010,07,21,12,05,23.20
2010,07,21,12,06,23.10
2010,07,21,12,07,23.10
2010,07,21,12,08,23.20
2010,07,21,12,09,23.20
2010,07,21,12,10,23.20
2010,07,21,12,11,23.30
2010,07,21,12,12,23.30
2010,07,21,12,13,23.40
2010,07,21,12,14,23.40
2010,07,21,12,15,23.40
2010,07,21,12,16,23.50
2010,07,21,12,17,23.60
2010,07,21,12,18,23.70
2010,07,21,12,19,23.80
2010,07,21,12,20,23.90
2010,07,21,12,21,24.00
2010,07,21,12,22,24.10
2010,07,21,12,23,24.30
2010,07,21,12,24,24.40
2010,07,21,12,25,24.40
2010,07,21,12,26,24.40
2010,07,21,12,27,24.40
2010,07,21,12,28,24.40
2010,07,21,12,29,24.30
2010,07,21,12,30,24.30
2010,07,21,12,31,24.40
2010,07,21,12,32,24.30
2010,07,21,12,33,24.30
2010,07,21,12,34,24.30
2010,07,21,12,35,24.40
2010,07,21,12,36,24.40
2010,07,21,12,37,24.50
2010,07,21,12,38,24.60
2010,07,21,12,39,24.60
2010,07,21,12,40,24.70
2010,07,21,12,41,24.70
2010,07,21,12,42,24.60
2010,07,21,12,43,24.50
2010,07,21,12,44,24.50
2010,07,21,12,45,24.40
2010,07,21,12,46,24.40
2010,07,21,12,47,24.30
2010,07,21,12,48,24.10
2010,07,21,12,49,23.90
2010,07,21,12,50,23.70
2010,07,21,12,51,23.50
2010,07,21,12,52,23.40
2010,07,21,12,53,23.30
2010,07,21,12,54,23.30
2010,07,21,12,55,23.40
2010,07,21,12,56,23.30
2010,07,21,12,57,23.40
2010,07,21,12,58,23.50
2010,07,21,12,59,23.60
2010,07,21,13,00,23.70
2010,07,21,13,01,23.80
2010,07,21,13,02,24.00
2010,07,21,13,03,24.10
2010,07,21,13,04,24.20
2010,07,21,13,05,24.20
2010,07,21,13,06,24.20
2010,07,21,13,07,24.10
2010,07,21,13,08,24.10
2010,07,21,13,09,24.10
2010,07,21,13,10,24.00
2010,07,21,13,11,24.00
2010,07,21,13,12,23.90
2010,07,21,13,13,24.00
2010,07,21,13,14,24.00
2010,07,21,13,15,24.00
2010,07,21,13,16,24.00
2010,07,21,13,17,24.00
2010,07,21,13,18,24.00
2010,07,21,13,19,24.00
2010,07,21,13,20,24.00
2010,07,21,13,21,23.90
2010,07,21,13,22,23.90
2010,07,21,13,23,23.90
2010,07,21,13,24,23.90
2010,07,21,13,25,23.80
2010,07,21,13,26,23.80
2010,07,21,13,27,23.80
2010,07,21,13,28,23.70
2010,07,21,13,29,23.50
2010,07,21,13,30,23.40
2010,07,21,13,31,23.40
2010,07,21,13,32,23.50
2010,07,21,13,33,23.70
2010,07,21,13,34,23.80
2010,07,21,13,35,23.90
2010,07,21,13,36,24.00
2010,07,21,13,37,24.10
2010,07,21,13,38,24.10
2010,07,21,13,39,24.10
2010,07,21,13,40,24.20
2010,07,21,13,41,24.20
2010,07,21,13,42,24.10
2010,07,21,13,43,24.10
2010,07,21,13,44,24.10
2010,07,21,13,45,24.10
2010,07,21,13,46,24.00
2010,07,21,13,47,24.00
2010,07,21,13,48,24.00
2010,07,21,13,49,24.10
2010,07,21,13,50,24.30
2010,07,21,13,51,24.40
2010,07,21,13,52,24.50
2010,07,21,13,53,24.60
2010,07,21,13,54,24.70
2010,07,21,13,55,24.80
2010,07,21,13,56,24.70
2010,07,21,13,57,24.60
2010,07,21,13,58,24.50
2010,07,21,13,59,24.50
2010,07,21,14,00,24.40
2010,07,21,14,01,24.50
2010,07,21,14,02,24.60
2010,07,21,14,03,24.60
2010,07,21,14,04,24.60
2010,07,21,14,05,24.60
2010,07,21,14,06,24.60
2010,07,21,14,07,24.50
2010,07,21,14,08,24.40
2010,07,21,14,09,24.40
2010,07,21,14,10,24.40
2010,07,21,14,11,24.40
2010,07,21,14,12,24.50
2010,07,21,14,13,24.60
2010,07,21,14,14,24.60
2010,07,21,14,15,24.70
2010,07,21,14,16,24.60
2010,07,21,14,17,24.50
2010,07,21,14,18,24.50
2010,07,21,14,19,24.40
2010,07,21,14,20,24.40
2010,07,21,14,21,24.40
2010,07,21,14,22,24.50
2010,07,21,14,23,24.50
2010,07,21,14,24,24.40
2010,07,21,14,25,24.40
2010,07,21,14,26,24.30
2010,07,21,14,27,24.40
2010,07,21,14,28,24.50
2010,07,21,14,29,24.50
2010,07,21,14,30,24.60
2010,07,21,14,31,24.60
2010,07,21,14,32,24.70
2010,07,21,14,33,24.70
2010,07,21,14,34,24.70
2010,07,21,14,35,24.80
2010,07,21,14,36,24.80
2010,07,21,14,37,24.70
2010,07,21,14,38,24.80
2010,07,21,14,39,24.80
2010,07,21,14,40,24.80
2010,07,21,14,41,24.70
2010,07,21,14,42,24.60
2010,07,21,14,43,24.50
2010,07,21,14,44,24.30
2010,07,21,14,45,24.30
2010,07,21,14,46,24.30
2010,07,21,14,47,24.20
2010,07,21,14,48,24.20
2010,07,21,14,49,24.20
2010,07,21,14,50,24.20
2010,07,21,14,51,24.20
2010,07,21,14,52,24.20
2010,07,21,14,53,24.30
2010,07,21,14,54,24.30
2010,07,21,14,55,24.40
2010,07,21,14,56,24.50
2010,07,21,14,57,24.60
2010,07,21,14,58,24.70
2010,07,21,14,59,24.80
2010,07,21,15,00,24.90
2010,07,21,15,01,24.90
2010,07,21,15,02,24.90
2010,07,21,15,03,24.80
2010,07,21,15,04,24.70
2010,07,21,15,05,24.60
2010,07,21,15,06,24.40
2010,07,21,15,07,24.30
2010,07,21,15,08,24.30
2010,07,21,15,09,24.30
2010,07,21,15,10,24.20
2010,07,21,15,11,24.10
2010,07,21,15,12,24.10
2010,07,21,15,13,24.20
2010,07,21,15,14,24.30
2010,07,21,15,15,24.40
2010,07,21,15,16,24.50
2010,07,21,15,17,24.50
2010,07,21,15,18,24.60
2010,07,21,15,19,24.70
2010,07,21,15,20,24.70
2010,07,21,15,21,24.60
2010,07,21,15,22,24.60
2010,07,21,15,23,24.60
2010,07,21,15,24,24.60
2010,07,21,15,25,24.60
2010,07,21,15,26,24.50
2010,07,21,15,27,24.50
2010,07,21,15,28,24.60
2010,07,21,15,29,24.50
2010,07,21,15,30,24.50
2010,07,21,15,31,24.50
2010,07,21,15,32,24.40
2010,07,21,15,33,24.20
2010,07,21,15,34,24.10
2010,07,21,15,35,24.00
2010,07,21,15,36,24.00
2010,07,21,15,37,24.00
2010,07,21,15,38,24.00
2010,07,21,15,39,24.10
2010,07,21,15,40,24.10
2010,07,21,15,41,24.20
2010,07,21,15,42,24.30
2010,07,21,15,43,24.50
2010,07,21,15,44,24.60
2010,07,21,15,45,24.70
2010,07,21,15,46,24.80
2010,07,21,15,47,24.90
2010,07,21,15,48,25.00
2010,07,21,15,49,25.10
2010,07,21,15,50,25.20
2010,07,21,15,51,25.20
2010,07,21,15,52,25.30
2010,07,21,15,53,25.30
2010,07,21,15,54,25.30
2010,07,21,15,55,25.30
2010,07,21,15,56,25.30
2010,07,21,15,57,25.30
2010,07,21,15,58,25.30
2010,07,21,15,59,25.30
2010,07,21,16,00,25.40
2010,07,21,16,01,25.40
2010,07,21,16,02,25.50
2010,07,21,16,03,25.50
2010,07,21,16,04,25.60
2010,07,21,16,05,25.60
2010,07,21,16,06,25.60
2010,07,21,16,07,25.60
2010,07,21,16,08,25.50
2010,07,21,16,09,25.30
2010,07,21,16,10,25.20
2010,07,21,16,11,25.20
2010,07,21,16,12,25.20
2010,07,21,16,13,25.20
2010,07,21,16,14,25.20
2010,07,21,16,15,25.20
2010,07,21,16,16,25.20
2010,07,21,16,17,25.30
2010,07,21,16,18,25.30
2010,07,21,16,19,25.30
2010,07,21,16,20,25.30
2010,07,21,16,21,25.30
2010,07,21,16,22,25.30
2010,07,21,16,23,25.30
2010,07,21,16,24,25.30
2010,07,21,16,25,25.30
2010,07,21,16,26,25.30
2010,07,21,16,27,25.30
2010,07,21,16,28,25.20
2010,07,21,16,29,25.20
2010,07,21,16,30,25.20
2010,07,21,16,31,25.20
2010,07,21,16,32,25.20
2010,07,21,16,33,25.20
2010,07,21,16,34,25.20
2010,07,21,16,35,25.20
2010,07,21,16,36,25.20
2010,07,21,16,37,25.10
2010,07,21,16,38,25.10
2010,07,21,16,39,25.10
2010,07,21,16,40,25.10
2010,07,21,16,41,25.10
2010,07,21,16,42,25.10
2010,07,21,16,43,25.10
2010,07,21,16,44,25.10
2010,07,21,16,45,25.10
2010,07,21,16,46,25.20
2010,07,21,16,47,25.20
2010,07,21,16,48,25.30
2010,07,21,16,49,25.30
2010,07,21,16,50,25.30
2010,07,21,16,51,25.30
2010,07,21,16,52,25.30
2010,07,21,16,53,25.30
2010,07,21,16,54,25.30
2010,07,21,16,55,25.30
2010,07,21,16,56,25.30
2010,07,21,16,57,25.30
2010,07,21,16,58,25.30
2010,07,21,16,59,25.30
2010,07,21,17,00,25.30
2010,07,21,17,01,25.30
2010,07,21,17,02,25.30
2010,07,21,17,03,25.30
2010,07,21,17,04,25.30
2010,07,21,17,05,25.30
2010,07,21,17,06,25.30
2010,07,21,17,07,25.30
2010,07,21,17,08,25.20
2010,07,21,17,09,25.20
2010,07,21,17,10,25.20
2010,07,21,17,11,25.20
2010,07,21,17,12,25.20
2010,07,21,17,13,25.20
2010,07,21,17,14,25.30
2010,07,21,17,15,25.30
2010,07,21,17,16,25.40
2010,07,21,17,17,25.40
2010,07,21,17,18,25.50
2010,07,21,17,19,25.50